Nausori, Fiji

8:24 AM +13 on November 25, 2017 (GMT +1300)
Nausori International

Weather History for NFNA - February, 2013

Change the Weather History Date:

Friday, February 1, 2013

  Actual Average Record
Temperature  
Mean Temperature 80 °F -  
Max Temperature 86 °F 88 °F - ()
Min Temperature 73 °F 75 °F - ()
Cooling Degree Days 14    
Growing Degree Days 30 (Base 50)    
Moisture  
Dew Point 75 °F    
Average Humidity 84    
Maximum Humidity 96    
Minimum Humidity 58    
Precipitation  
Precipitation 0.04 in 0.38 in - ()
Sea Level Pressure  
Sea Level Pressure 29.71 in    
Wind  
Wind Speed 1 mph ()    
Max Wind Speed 6 mph    
Max Gust Speed -    
Visibility 15.6 miles    
Events Rain    
T = Trace of Precipitation, MM = Missing Value Source: Averaged Metar Reports

Daily Weather History Graph

Daily Weather History Graph

Search for Another Location

Airport or City:

Trip Planner

Search our weather history database for the weather conditions in past years. The results will help you decide how hot, cold, wet, or windy it might be!

Date:

Astronomy

Feb. 01, 2013 Rise Set
Actual Time 5:52 AM +12 6:45 PM +12
Civil Twilight 5:29 AM +12 7:08 PM +12
Nautical Twilight 5:02 AM +12 7:36 PM +12
Astronomical Twilight 4:34 AM +12 8:03 PM +12
Moon 9:59 PM +12 (2/1) 9:54 AM +12 (2/1)
Length of Visible Light 13h 39m
Length of Day
12h 53m
Waning Gibbous, 77% of the Moon is Illuminated
Feb 1
Waning Gibbous
Feb 4
Last Quarter
Feb 10
New
Feb 18
First Quarter
Feb 26
Full

Hourly Weather History & Observations

Time (+12) Temp. Heat Index Dew Point Humidity Pressure Visibility Wind Dir Wind Speed Gust Speed Precip Events Conditions
12:00 AM 78.8 °F - 73.4 °F 83% 29.77 in 24.9 mi Calm Calm - N/A   Mostly Cloudy
1:00 AM 78.8 °F - 73.4 °F 83% 29.74 in 24.9 mi Calm Calm - N/A   Mostly Cloudy
2:00 AM 77.0 °F - 73.4 °F 89% 29.74 in 18.6 mi Calm Calm - N/A Rain Light Rain Showers
3:00 AM 76 °F - 73 °F 89% 29.69 in 12 mi Calm Calm - - Rain Light Rain Showers
3:00 AM 77.0 °F - 73.4 °F 89% 29.68 in 18.6 mi Calm Calm - N/A   Mostly Cloudy
4:00 AM 77.0 °F - 73.4 °F 89% 29.65 in 18.6 mi Calm Calm - N/A   Mostly Cloudy
5:00 AM 77.0 °F - 73.4 °F 89% 29.68 in 24.9 mi Variable 3.5 mph - N/A   Mostly Cloudy
6:00 AM 73 °F - 72 °F 96% 29.70 in 12 mi Calm Calm - -   Partly Cloudy
6:00 AM 73.4 °F - 71.6 °F 94% 29.68 in 28.0 mi Calm Calm - N/A   Mostly Cloudy
7:00 AM 75.2 °F - 73.4 °F 94% 29.71 in 28.0 mi Calm Calm - N/A   Mostly Cloudy
8:00 AM 77.0 °F - 73.4 °F 89% 29.74 in 28.0 mi Calm Calm - N/A   Mostly Cloudy
9:00 AM 80.6 °F 85.4 °F 73.4 °F 79% 29.74 in 31.1 mi WNW 3.5 mph - N/A   Mostly Cloudy
10:00 AM 82.4 °F 89.5 °F 75.2 °F 79% 29.74 in 31.1 mi Calm Calm - N/A   Mostly Cloudy
11:00 AM 84.2 °F 92.3 °F 75.2 °F 74% 29.74 in 24.9 mi Calm Calm - N/A   Mostly Cloudy
12:00 PM 86 °F - 74 °F 61% 29.73 in 12 mi Calm Calm - -   Haze
12:00 PM 86.0 °F 95.1 °F 75.2 °F 70% 29.71 in 24.9 mi Calm Calm - N/A   Mostly Cloudy
1:00 PM 86.0 °F 95.1 °F 75.2 °F 70% 29.71 in 31.1 mi NNE 5.8 mph - N/A   Mostly Cloudy
2:00 PM 86.0 °F 90.4 °F 69.8 °F 58% 29.68 in 24.9 mi NE 5.8 mph - N/A   Mostly Cloudy
3:00 PM 83 °F - 76 °F 73% 29.70 in 12 mi NNE 5.8 mph - - Rain Light Rain Showers
3:00 PM 82.4 °F 89.5 °F 75.2 °F 79% 29.68 in 18.6 mi NNE 5.8 mph - N/A Rain Light Rain Showers
4:00 PM 82.4 °F 90.9 °F 77.0 °F 84% 29.68 in 18.6 mi Calm Calm - N/A   Mostly Cloudy
5:00 PM 80.6 °F 87.1 °F 77.0 °F 89% 29.68 in 18.6 mi Calm Calm - N/A   Mostly Cloudy
6:00 PM 81 °F - 78 °F 89% 29.69 in 12 mi Calm Calm - - Rain Light Rain Showers
6:00 PM 80.6 °F 88.1 °F 78.8 °F 94% 29.68 in 18.6 mi Calm Calm - N/A Rain Light Rain Showers
7:00 PM 80.6 °F 87.1 °F 77.0 °F 89% 29.71 in 24.9 mi Calm Calm - N/A   Mostly Cloudy
8:00 PM 80.6 °F 87.1 °F 77.0 °F 89% 29.71 in 24.9 mi Calm Calm - N/A   Mostly Cloudy
9:00 PM 80 °F - 77 °F 88% 29.73 in 12 mi Calm Calm - -   Partly Cloudy
9:00 PM 78.8 °F - 77.0 °F 94% 29.71 in 24.9 mi Calm Calm - N/A   Mostly Cloudy
10:00 PM 78.8 °F - 77.0 °F 94% 29.71 in 24.9 mi Calm Calm - N/A   Mostly Cloudy
11:00 PM 78.8 °F - 77.0 °F 94% 29.74 in 24.9 mi Calm Calm - N/A   Mostly Cloudy